Tillbaka till svenska Fidonet
English   Information   Debug  
FILM   0/18
FNEWS_PUBLISH   4888
FN_SYSOP   42194
FN_SYSOP_OLD1   71952
FTP_FIDO   0/2
FTSC_PUBLIC   0/13965
FUNNY   0/4886
GENEALOGY.EUR   0/71
GET_INFO   105
GOLDED   0/408
HAM   0/16626
HOLYSMOKE   0/6791
HOT_SITES   0/1
HTMLEDIT   0/71
HUB203   466
HUB_100   264
HUB_400   39
HUMOR   0/29
IC   0/2851
INTERNET   0/424
INTERUSER   0/3
IP_CONNECT   719
JAMNNTPD   0/233
JAMTLAND   0/47
KATTY_KORNER   0/41
LAN   0/16
LINUX-USER   0/19
LINUXHELP   0/1155
LINUX   0/22287
LINUX_BBS   0/957
mail   18.68
mail_fore_ok   249
MENSA   0/341
MODERATOR   0/102
MONTE   0/992
MOSCOW_OKLAHOMA   0/1245
MUFFIN   0/783
MUSIC   0/321
N203_STAT   938
N203_SYSCHAT   313
NET203   321
NET204   69
NET_DEV   0/10
NORD.ADMIN   0/101
NORD.CHAT   0/2572
NORD.FIDONET   189
NORD.HARDWARE   0/28
NORD.KULTUR   0/114
NORD.PROG   0/32
NORD.SOFTWARE   0/88
NORD.TEKNIK   0/58
NORD   0/453
OCCULT_CHAT   23/93
OS2BBS   0/787
OS2DOSBBS   0/580
OS2HW   0/42
OS2INET   0/37
OS2LAN   0/134
OS2PROG   0/36
OS2REXX   0/113
OS2USER-L   207
OS2   0/4829
OSDEBATE   7142/18996
PASCAL   0/490
PERL   0/457
PHP   0/45
POINTS   0/405
POLITICS   0/29554
POL_INC   0/14731
PSION   103
R20_ADMIN   1133
R20_AMATORRADIO   0/2
R20_BEST_OF_FIDONET   16
R20_CHAT   0/896
R20_DEPP   0/3
R20_DEV   400
R20_ECHO2   1800
R20_ECHOPRES   0/35
R20_ESTAT   0/719
R20_FIDONETPROG...
...RAM.MYPOINT
  0/2
R20_FIDONETPROGRAM   0/22
R20_FIDONET   0/248
R20_FILEFIND   0/24
R20_FILEFOUND   0/22
R20_HIFI   0/3
R20_INFO2   3692
R20_INTERNET   0/12940
R20_INTRESSE   0/60
R20_INTR_KOM   0/99
R20_KANDIDAT.CHAT   42
R20_KANDIDAT   28
R20_KOM_DEV   112
R20_KONTROLL   0/13360
R20_KORSET   0/18
R20_LOKALTRAFIK   0/24
R20_MODERATOR   0/1852
R20_NC   76
R20_NET200   245
R20_NETWORK.OTH...
...ERNETS
  0/13
R20_OPERATIVSYS...
...TEM.LINUX
  0/44
R20_PROGRAMVAROR   0/1
R20_REC2NEC   534
R20_SFOSM   0/341
R20_SF   0/108
R20_SPRAK.ENGLISH   0/1
R20_SQUISH   107
R20_TEST   2
R20_WORST_OF_FIDONET   20
RAR   0/9
RA_MULTI   106
RA_UTIL   0/162
REGCON.EUR   0/2068
REGCON   0/13
SCIENCE   0/1206
SF   0/239
SHAREWARE_SUPPORT   0/5146
SHAREWRE   0/14
SIMPSONS   0/169
STATS_OLD1   0/2539.065
STATS_OLD2   0/2530
STATS_OLD3   0/2395.095
STATS_OLD4   0/1692.25
SURVIVOR   0/495
SYSOPS_CORNER   0/3
SYSOP   0/84
TAGLINES   0/112
TEAMOS2   0/4530
TECH   0/2617
TEST.444   0/105
TRAPDOOR   0/19
TREK   0/755
TUB   0/290
UFO   0/40
UNIX   0/1316
USA_EURLINK   0/102
USR_MODEMS   0/1
VATICAN   0/2740
VIETNAM_VETS   0/14
VIRUS   0/378
VIRUS_INFO   0/201
VISUAL_BASIC   0/473
WHITEHOUSE   0/5187
WIN2000   0/101
WIN32   0/30
WIN95   0/4291
WIN95_OLD1   51171/70272
WINDOWS   0/1517
WWB_SYSOP   0/419
WWB_TECH   0/810
ZCC-PUBLIC   0/1
ZEC   4

 
4DOS   0/134
ABORTION   0/7
ALASKA_CHAT   0/506
ALLFIX_FILE   0/1313
ALLFIX_FILE_OLD1   0/7997
ALT_DOS   0/152
AMATEUR_RADIO   0/1039
AMIGASALE   0/14
AMIGA   0/331
AMIGA_INT   0/1
AMIGA_PROG   0/20
AMIGA_SYSOP   0/26
ANIME   0/15
ARGUS   0/924
ASCII_ART   0/340
ASIAN_LINK   0/651
ASTRONOMY   0/417
AUDIO   0/92
AUTOMOBILE_RACING   0/105
BABYLON5   0/17862
BAG   135
BATPOWER   0/361
BBBS.ENGLISH   0/382
BBSLAW   0/109
BBS_ADS   0/5290
BBS_INTERNET   0/507
BIBLE   0/3563
BINKD   0/1119
BINKLEY   0/215
BLUEWAVE   0/2173
CABLE_MODEMS   0/25
CBM   0/46
CDRECORD   0/66
CDROM   0/20
CLASSIC_COMPUTER   0/378
COMICS   0/15
CONSPRCY   0/899
COOKING   41138
COOKING_OLD1   0/24719
COOKING_OLD2   0/40862
COOKING_OLD3   0/37489
COOKING_OLD4   0/35496
COOKING_OLD5   9370
C_ECHO   0/189
C_PLUSPLUS   0/31
DIRTY_DOZEN   0/201
DOORGAMES   0/2253
DOS_INTERNET   0/196
duplikat   6102
ECHOLIST   1594/18295
EC_SUPPORT   0/318
ELECTRONICS   0/359
ELEKTRONIK.GER   1534
ENET.LINGUISTIC   0/13
ENET.POLITICS   0/4
ENET.SOFT   0/11701
ENET.SYSOP   34274
ENET.TALKS   0/32
ENGLISH_TUTOR   0/2000
EVOLUTION   0/1335
FDECHO   0/217
FDN_ANNOUNCE   2632/7068
FIDONEWS   25010
FIDONEWS_OLD1   17599/49742
FIDONEWS_OLD2   9463/35949
FIDONEWS_OLD3   3938/30874
FIDONEWS_OLD4   0/37224
FIDO_SYSOP   12921
FIDO_UTIL   0/180
FILEFIND   0/209
FILEGATE   0/212
Möte HAM, 16626 texter
 lista första sista föregående nästa
Text 14, 749 rader
Skriven 2004-09-24 00:01:37 av Amsat List (1:323/120.0)
Ärende: 
========
SB KEPS @ AMSAT  $ORB04267.O
Orbital Elements  04267.OSCAR

HR AMSAT ORBITAL ELEMENTS FOR OSCAR SATELLITES
FROM WA5QGD FORT WORTH,TX September 23, 2004
SEND SUBSCRIBE/UNSUBSCRIBE TO majordomo@amsat.org ONLY
BID: ORB04267.O
TO ALL RADIO AMATEURS BT

Satellite: AO-07
Catalog number: 07530
Epoch time:      04266.96005471
Element set:    0327
Inclination:      101.6730 deg
RA of node:       312.1337 deg
Eccentricity:    0.0012181
Arg of perigee:   033.2970 deg
Mean anomaly:     326.8867 deg
Mean motion:   12.53568945 rev/day
Decay rate:       -2.9e-07 rev/day^2
Epoch rev:           36616
Checksum:              292

Satellite: AO-10
Catalog number: 14129
Epoch time:      04266.74235922
Element set:     105
Inclination:       26.6456 deg
RA of node:        70.3253 deg
Eccentricity:    0.6030191
Arg of perigee:   126.2600 deg
Mean anomaly:     305.7601 deg
Mean motion:    2.05867470 rev/day
Decay rate:       -2.3e-07 rev/day^2
Epoch rev:           16002
Checksum:              249

Satellite: UO-11
Catalog number: 14781
Epoch time:      04267.67761643
Element set:     588
Inclination:       98.1843 deg
RA of node:       254.1888 deg
Eccentricity:    0.0010356
Arg of perigee:   131.7827 deg
Mean anomaly:     228.4252 deg
Mean motion:   14.79004528 rev/day
Decay rate:       5.96e-06 rev/day^2
Epoch rev:           10240
Checksum:              318

Satellite: RS-10/11
Catalog number: 18129
Epoch time:      04266.96468633
Element set:    0506
Inclination:      082.9198 deg
RA of node:       075.7954 deg
Eccentricity:    0.0013425
Arg of perigee:   051.4084 deg
Mean anomaly:     308.8270 deg
Mean motion:   13.72744628 rev/day
Decay rate:        3.4e-07 rev/day^2
Epoch rev:           86441
Checksum:              322

Satellite: FO-20
Catalog number: 20480
Epoch time:      04266.67456674
Element set:     713
Inclination:       99.0351 deg
RA of node:       125.7164 deg
Eccentricity:    0.0540817
Arg of perigee:   125.9683 deg
Mean anomaly:     239.2829 deg
Mean motion:   12.83341770 rev/day
Decay rate:       -3.1e-07 rev/day^2
Epoch rev:           68518
Checksum:              317

Satellite: RS-12/13
Catalog number: 21089
Epoch time:      04267.65761361
Element set:     735
Inclination:       82.9180 deg
RA of node:       108.6995 deg
Eccentricity:    0.0030648
Arg of perigee:   100.3828 deg
Mean anomaly:     260.0783 deg
Mean motion:   13.74441171 rev/day
Decay rate:        3.1e-07 rev/day^2
Epoch rev:           68388
Checksum:              312

Satellite: RS-15
Catalog number: 23439
Epoch time:      04266.91038497
Element set:    0824
Inclination:      064.8162 deg
RA of node:       179.7935 deg
Eccentricity:    0.0155759
Arg of perigee:   003.7260 deg
Mean anomaly:     356.4786 deg
Mean motion:   11.27549850 rev/day
Decay rate:       -3.9e-07 rev/day^2
Epoch rev:           40125
Checksum:              335

Satellite: FO-29
Catalog number: 24278
Epoch time:      04266.79112830
Element set:     801
Inclination:       98.5828 deg
RA of node:       345.9668 deg
Eccentricity:    0.0350964
Arg of perigee:   148.7919 deg
Mean anomaly:     213.4590 deg
Mean motion:   13.52903459 rev/day
Decay rate:       -2.0e-07 rev/day^2
Epoch rev:           40003
Checksum:              325

Satellite: SO-33
Catalog number: 25509
Epoch time:      04266.84312798
Element set:     201
Inclination:       31.4304 deg
RA of node:       103.5952 deg
Eccentricity:    0.0356786
Arg of perigee:   349.5052 deg
Mean anomaly:       9.8279 deg
Mean motion:   14.27866699 rev/day
Decay rate:       2.66e-06 rev/day^2
Epoch rev:           30858
Checksum:              334

Satellite: AO-40
Catalog number: 26609
Epoch time:      04259.42580772
Element set:     435
Inclination:        9.7703 deg
RA of node:       343.0238 deg
Eccentricity:    0.7966699
Arg of perigee:   320.3876 deg
Mean anomaly:       3.3706 deg
Mean motion:    1.25585724 rev/day
Decay rate:      -1.10e-06 rev/day^2
Epoch rev:            1780
Checksum:              311

/EX
SB KEPS @ AMSAT  $ORB04267.D
Orbital Elements  04267.MICROS

HR AMSAT ORBITAL ELEMENTS FOR THE MICROSATS
FROM WA5QGD FORT WORTH,TX September 23, 2004
SEND SUBSCRIBE/UNSUBSCRIBE TO majordomo@amsat.org ONLY
BID: ORB04267.D
TO ALL RADIO AMATEURS BT

Satellite: UO-14
Catalog number: 20437
Epoch time:      04267.02685022
Element set:     598
Inclination:       98.2071 deg
RA of node:       285.5759 deg
Eccentricity:    0.0009817
Arg of perigee:   271.0955 deg
Mean anomaly:      88.9118 deg
Mean motion:   14.31371485 rev/day
Decay rate:       -1.7e-07 rev/day^2
Epoch rev:           76581
Checksum:              328

Satellite: AO-16
Catalog number: 20439
Epoch time:      04266.59094069
Element set:     285
Inclination:       98.2380 deg
RA of node:       299.8153 deg
Eccentricity:    0.0009976
Arg of perigee:   280.2953 deg
Mean anomaly:      79.7100 deg
Mean motion:   14.31629671 rev/day
Decay rate:        3.3e-07 rev/day^2
Epoch rev:           76580
Checksum:              334

Satellite: WO-18
Catalog number: 20441
Epoch time:      04267.16864842
Element set:     473
Inclination:       98.2533 deg
RA of node:       304.4226 deg
Eccentricity:    0.0010639
Arg of perigee:   280.2511 deg
Mean anomaly:      79.7472 deg
Mean motion:   14.31705096 rev/day
Decay rate:        4.3e-07 rev/day^2
Epoch rev:           76594
Checksum:              302

Satellite: LO-19
Catalog number: 20442
Epoch time:      04266.65967358
Element set:    0229
Inclination:      098.2674 deg
RA of node:       308.0201 deg
Eccentricity:    0.0011145
Arg of perigee:   281.0121 deg
Mean anomaly:     078.9805 deg
Mean motion:   14.31876446 rev/day
Decay rate:        5.5e-07 rev/day^2
Epoch rev:           76593
Checksum:              311

